Suffolk, VA

2:38 AM EDT on September 29, 2016 (GMT -0400)
Suffolk Municipal

Weather History for KSFQ - December, 2012

Change the Weather History Date:

Thursday, December 27, 2012

  Actual Average Record
Temperature  
Mean Temperature 44 °F -  
Max Temperature 50 °F 45 °F 74 °F (2015)
Min Temperature 35 °F 30 °F 10 °F (1948)
Degree Days  
Heating Degree Days 22    
Moisture  
Dew Point 34 °F    
Average Humidity 71    
Maximum Humidity 93    
Minimum Humidity 50    
Precipitation  
Precipitation 0.00 in - - ()
Sea Level Pressure  
Sea Level Pressure 29.80 in    
Wind  
Wind Speed 13 mph (West)    
Max Wind Speed 23 mph    
Max Gust Speed 28 mph    
Visibility 10 miles    
Events      
Averages and records for this station are not official NWS values.
T = Trace of Precipitation, MM = Missing Value Source: NWS Daily Summary

Daily Weather History Graph

Daily Weather History Graph

Search for Another Location

Airport or City:

Trip Planner

Search our weather history database for the weather conditions in past years. The results will help you decide how hot, cold, wet, or windy it might be!

Date:

Astronomy

Dec. 27, 2012 Rise Set
Actual Time 7:17 AM EST 4:57 PM EST
Civil Twilight 6:48 AM EST 5:26 PM EST
Nautical Twilight 6:16 AM EST 5:59 PM EST
Astronomical Twilight 5:44 AM EST 6:30 PM EST
Moon 4:38 PM EST (12/27) 6:27 AM EST (12/27)
Length of Visible Light 10h 37m
Length of Day
9h 40m
Full, 100% of the Moon is Illuminated
Dec 27
Full
Dec 28
Full
Jan 4
Last Quarter
Jan 11
New
Jan 18
First Quarter

Hourly Weather History & Observations

Time (EST) Temp. Windchill Dew Point Humidity Pressure Visibility Wind Dir Wind Speed Gust Speed Precip Events Conditions
12:15 AM 42.8 °F 34.8 °F 41.0 °F 93% 29.53 in 10.0 mi West 17.3 mph 23.0 mph N/A   Overcast
12:35 AM 42.8 °F 35.4 °F 39.2 °F 87% 29.54 in 10.0 mi West 15.0 mph 23.0 mph N/A   Overcast
12:55 AM 42.8 °F 36.6 °F 39.2 °F 87% 29.53 in 10.0 mi WSW 11.5 mph 19.6 mph N/A   Overcast
1:15 AM 42.8 °F 36.6 °F 39.2 °F 87% 29.53 in 10.0 mi WSW 11.5 mph - N/A   Overcast
1:35 AM 42.8 °F 36.2 °F 39.2 °F 87% 29.53 in 10.0 mi WSW 12.7 mph 19.6 mph N/A   Mostly Cloudy
1:55 AM 42.8 °F 35.1 °F 39.2 °F 87% 29.54 in 10.0 mi WSW 16.1 mph 20.7 mph N/A   Scattered Clouds
2:15 AM 42.8 °F 35.8 °F 39.2 °F 87% 29.55 in 10.0 mi WSW 13.8 mph 19.6 mph N/A   Scattered Clouds
2:35 AM 42.8 °F 35.8 °F 39.2 °F 87% 29.56 in 10.0 mi WSW 13.8 mph - N/A   Clear
2:55 AM 42.8 °F 35.8 °F 39.2 °F 87% 29.57 in 10.0 mi WSW 13.8 mph 23.0 mph N/A   Scattered Clouds
3:35 AM 42.8 °F 35.1 °F 39.2 °F 87% 29.58 in 10.0 mi WSW 16.1 mph 21.9 mph N/A   Scattered Clouds
3:55 AM 42.8 °F 35.4 °F 39.2 °F 87% 29.59 in 10.0 mi WSW 15.0 mph - N/A   Clear
4:15 AM 42.8 °F 35.4 °F 39.2 °F 87% 29.59 in 10.0 mi WSW 15.0 mph 23.0 mph N/A   Scattered Clouds
4:35 AM 42.8 °F 36.2 °F 39.2 °F 87% 29.60 in 10.0 mi WSW 12.7 mph - N/A   Scattered Clouds
4:55 AM 42.8 °F 36.2 °F 37.4 °F 81% 29.61 in 10.0 mi WSW 12.7 mph 18.4 mph N/A   Clear
5:35 AM 41.0 °F 34.3 °F 37.4 °F 87% 29.63 in 10.0 mi WSW 11.5 mph 17.3 mph N/A   Clear
5:55 AM 41.0 °F 33.5 °F 37.4 °F 87% 29.64 in 10.0 mi WSW 13.8 mph - N/A   Clear
6:15 AM 41.0 °F 33.9 °F 37.4 °F 87% 29.65 in 10.0 mi WSW 12.7 mph - N/A   Clear
6:35 AM 41.0 °F 33.9 °F 37.4 °F 87% 29.67 in 10.0 mi WSW 12.7 mph 20.7 mph N/A   Clear
6:55 AM 41.0 °F 33.5 °F 35.6 °F 81% 29.69 in 10.0 mi WSW 13.8 mph - N/A   Clear
7:15 AM 41.0 °F 33.5 °F 35.6 °F 81% 29.70 in 10.0 mi WSW 13.8 mph - N/A   Clear
7:35 AM 41.0 °F 35.2 °F 35.6 °F 81% 29.71 in 10.0 mi WSW 9.2 mph - N/A   Clear
7:55 AM 41.0 °F 33.5 °F 35.6 °F 81% 29.72 in 10.0 mi West 13.8 mph 18.4 mph N/A   Clear
8:15 AM 42.8 °F 36.6 °F 35.6 °F 76% 29.73 in 10.0 mi West 11.5 mph 17.3 mph N/A   Clear
8:35 AM 42.8 °F 37.0 °F 35.6 °F 76% 29.74 in 10.0 mi West 10.4 mph 23.0 mph N/A   Clear
8:55 AM 42.8 °F 35.8 °F 35.6 °F 76% 29.76 in 10.0 mi West 13.8 mph 19.6 mph N/A   Clear
9:15 AM 42.8 °F 35.8 °F 35.6 °F 76% 29.77 in 10.0 mi West 13.8 mph 21.9 mph N/A   Clear
9:55 AM 44.6 °F 37.2 °F 35.6 °F 71% 29.80 in 10.0 mi West 17.3 mph - N/A   Clear
10:15 AM 44.6 °F 36.9 °F 35.6 °F 71% 29.81 in 10.0 mi West 18.4 mph 26.5 mph N/A   Clear
10:55 AM 46.4 °F 40.7 °F 33.8 °F 62% 29.82 in 10.0 mi West 12.7 mph 20.7 mph N/A   Clear
11:15 AM 46.4 °F 40.4 °F 33.8 °F 62% 29.82 in 10.0 mi WNW 13.8 mph 23.0 mph N/A   Clear
11:35 AM 46.4 °F 39.0 °F 33.8 °F 62% 29.82 in 10.0 mi WNW 19.6 mph 25.3 mph N/A   Scattered Clouds
11:55 AM 48.2 °F - 33.8 °F 58% 29.82 in 10.0 mi WNW 19.6 mph 24.2 mph N/A   Clear
12:15 PM 48.2 °F - 33.8 °F 58% 29.82 in 10.0 mi West 23.0 mph 27.6 mph N/A   Clear
12:35 PM 48.2 °F - 33.8 °F 58% 29.82 in 10.0 mi West 15.0 mph 24.2 mph N/A   Clear
12:55 PM 48.2 °F - 32.0 °F 54% 29.82 in 10.0 mi WNW 15.0 mph 24.2 mph N/A   Clear
1:15 PM 48.2 °F - 33.8 °F 58% 29.82 in 10.0 mi NW 15.0 mph 19.6 mph N/A   Clear
1:35 PM 48.2 °F - 32.0 °F 54% 29.82 in 10.0 mi WNW 17.3 mph 25.3 mph N/A   Clear
1:55 PM 50.0 °F - 32.0 °F 50% 29.83 in 10.0 mi WNW 13.8 mph 20.7 mph N/A   Clear
2:15 PM 50.0 °F - 33.8 °F 54% 29.84 in 10.0 mi West 16.1 mph 20.7 mph N/A   Clear
2:35 PM 50.0 °F - 32.0 °F 50% 29.85 in 10.0 mi West 16.1 mph 20.7 mph N/A   Clear
2:55 PM 50.0 °F - 32.0 °F 50% 29.85 in 10.0 mi West 15.0 mph 21.9 mph N/A   Clear
3:15 PM 50.0 °F - 33.8 °F 54% 29.86 in 10.0 mi West 9.2 mph 17.3 mph N/A   Clear
3:35 PM 50.0 °F - 33.8 °F 54% 29.87 in 10.0 mi WNW 12.7 mph 17.3 mph N/A   Clear
3:55 PM 48.2 °F - 32.0 °F 54% 29.88 in 10.0 mi West 15.0 mph 20.7 mph N/A   Clear
4:15 PM 48.2 °F - 33.8 °F 58% 29.88 in 10.0 mi West 9.2 mph - N/A   Clear
4:35 PM 48.2 °F - 32.0 °F 54% 29.89 in 10.0 mi West 11.5 mph 19.6 mph N/A   Clear
4:55 PM 46.4 °F 41.9 °F 33.8 °F 62% 29.90 in 10.0 mi West 9.2 mph - N/A   Clear
5:15 PM 46.4 °F 40.7 °F 33.8 °F 62% 29.91 in 10.0 mi West 12.7 mph 16.1 mph N/A   Clear
5:35 PM 46.4 °F 41.9 °F 33.8 °F 62% 29.93 in 10.0 mi West 9.2 mph - N/A   Clear
5:55 PM 44.6 °F 40.2 °F 33.8 °F 66% 29.95 in 10.0 mi West 8.1 mph - N/A   Clear
6:15 PM 44.6 °F 40.2 °F 33.8 °F 66% 29.96 in 10.0 mi West 8.1 mph - N/A   Clear
6:35 PM 44.6 °F 40.2 °F 33.8 °F 66% 29.96 in 10.0 mi West 8.1 mph - N/A   Clear
7:15 PM 42.8 °F 39.3 °F 32.0 °F 66% 29.98 in 10.0 mi West 5.8 mph - N/A   Clear
7:35 PM 42.8 °F 37.0 °F 32.0 °F 66% 29.98 in 10.0 mi West 10.4 mph - N/A   Clear
7:55 PM 42.8 °F 38.6 °F 32.0 °F 66% 29.99 in 10.0 mi West 6.9 mph - N/A   Clear
8:15 PM 42.8 °F 38.0 °F 30.2 °F 61% 29.99 in 10.0 mi WNW 8.1 mph - N/A   Clear
8:35 PM 42.8 °F 37.0 °F 30.2 °F 61% 29.99 in 10.0 mi West 10.4 mph - N/A   Clear
8:55 PM 42.8 °F 38.0 °F 30.2 °F 61% 30.00 in 10.0 mi West 8.1 mph - N/A   Clear
9:15 PM 41.0 °F 36.4 °F 30.2 °F 65% 30.01 in 10.0 mi West 6.9 mph - N/A   Clear
9:35 PM 39.2 °F 34.2 °F 30.2 °F 70% 30.01 in 10.0 mi West 6.9 mph - N/A   Clear
9:55 PM 39.2 °F 33.0 °F 30.2 °F 70% 30.02 in 10.0 mi WNW 9.2 mph - N/A   Clear
10:15 PM 39.2 °F 33.6 °F 30.2 °F 70% 30.03 in 10.0 mi West 8.1 mph - N/A   Clear
10:35 PM 39.2 °F 34.2 °F 30.2 °F 70% 30.05 in 10.0 mi West 6.9 mph - N/A   Clear
10:55 PM 37.4 °F 31.4 °F 30.2 °F 75% 30.05 in 10.0 mi WNW 8.1 mph - N/A   Clear
11:15 PM 37.4 °F 31.4 °F 28.4 °F 70% 30.06 in 10.0 mi WNW 8.1 mph - N/A   Clear
11:35 PM 37.4 °F 32.8 °F 28.4 °F 70% 30.07 in 10.0 mi West 5.8 mph - N/A   Clear
11:55 PM 35.6 °F 30.7 °F 28.4 °F 75% 30.06 in 10.0 mi West 5.8 mph - N/A   Clear